Regional Weather Roundup
Issued by NWS Northern Indiana

Home | Current Version | Previous Version | Graphics & Text | Print | Product List | Glossary On
Versions: 1 2 3 4 5 6 7 8 9 10 11 12 13 14 15 16 17 18 19 20 21 22 23 24 25 26 27 28 29 30 31 32 33 34 35 36 37 38 39 40 41 42 43 44 45 46 47 48 49 50
000
ASUS43 KIWX 251601
RWRIWX

KIWX WEATHER ROUNDUP
NATIONAL WEATHER SERVICE NORTHERN INDIANA
1200 PM EDT TUE JUL 25 2017

NOTE: "FAIR" INDICATES FEW OR NO CLOUDS BELOW 12,000 FEET WITH NO
SIGNIFICANT WEATHER AND/OR OBSTRUCTIONS TO VISIBILITY.

* THESE STATIONS ARE NOT UNDER NWS QUALITY CONTROL. THEY ALSO MAY NOT
  REPORT WEATHER SUCH AS PRECIPITATION OR FOG.

INZ001>027-251700-
NORTHERN INDIANA

CITY           SKY/WX    TMP DP  RH WIND       PRES   REMARKS
GARY*          MOSUNNY   75  55  50 SE10      30.21F
SOUTH BEND     SUNNY     74  50  42 SE14      30.23S
ELKHART*       SUNNY    N/A N/A N/A E5        30.23S
GOSHEN         SUNNY     75  50  41 SE10      30.24S
MONTICELLO*    SUNNY     73  54  50 E6        30.21S
FORT WAYNE     MOSUNNY   72  50  45 E9        30.25S
PERU/GRISSOM   SUNNY     73  55  52 E8        30.22S

$$
INZ028>050-251700-
CENTRAL INDIANA

CITY           SKY/WX    TMP DP  RH WIND       PRES   REMARKS
LAFAYETTE      SUNNY     74  58  57 SE12      30.20S
KOKOMO*        SUNNY     73  58  59 E8        30.24R
MUNCIE*        SUNNY     74  54  49 E8        30.23S
INDIANAPOLIS   MOSUNNY   75  55  49 E12       30.19S

$$
MIZ043>046-050>051-056>058-064>065-071>073-077>080-251700-
SOUTHWEST LOWER MICHIGAN

CITY           SKY/WX    TMP DP  RH WIND       PRES   REMARKS
BATTLE CREEK   SUNNY     74  51  44 S6        30.25F
BENTON HARBOR  SUNNY     75  55  49 S7        30.22F
COLDWATER*     SUNNY     72  54  53 E3        30.25S
HILLSDALE*     SUNNY     72  50  46 NE6       30.25F
GRAND RAPIDS   PTSUNNY   74  56  53 SE6       30.24S
KALAMAZOO      SUNNY     76  48  37 CALM      30.24F
STURGIS*       SUNNY     72  54  53 SE8       30.24S
THREE RIVERS*  FAIR      73  50  44 SE7       30.25S

$$
OHZ001>008-015>018-024>025-251700-
NORTHWEST OHIO

CITY           SKY/WX    TMP DP  RH WIND       PRES   REMARKS
DEFIANCE       SUNNY    N/A N/A N/A E8        30.25S
FINDLAY        MOSUNNY   73  55  53 VRB6      30.23R
TOLEDO EXPRESS SUNNY     74  54  49 E8        30.23S
TOLEDO METCALF SUNNY     74  57  55 NE8       30.25R
LIMA           MOSUNNY   71  58  63 E12       30.24R

$$
AND FOR LAKE MICHIGAN COASTAL AND OPEN LAKE BUOY OBSERVATIONS

STATION/POSITION TEMP    WIND        PRES    VSBY  WAVE
                 AIR SEA DIR/SP/G                  HT/PER
                 (F)     (DEG/KT/KT) (MB)    (MI)  (FT/S)
CALUMET HARBOR    74     150/  8/ 15 1022.2F
MICHIGAN CITY     71     130/ 11/ 13   N/A
BURNS HARBOR      74     170/  8/ 13 1023.4F
SAINT JOSEPH      74     220/  3/  7 1023.7
SOUTH LAKE BUOY   70 71  160/ 12/ 14 1022.9          1/ 3
4 MI NW BRIDGMAN  71 73  190/  6/  8 1023.1F         1/ 5
MICHIGAN CITY     72 74  160/ 10/ 14   N/A           2/ 5

$$
&&




USA.gov is the U.S. government's official web portal to all federal, state and local government web resources and services.